Date String (YYYY-MM-DD hh:mm:ss) UTC,Instrument flags,absolute air pressure of the measurement (hPa),sample flow rate (lpm),inlet stack bypass flow (lpm),air temperature of the measurement (°C),ambient temperature measured by the external sensor (°C),aerosol sample conditioner tube jacket temperature (°C),OPC LED temperature (°C),internal box temperature (°C),relative humidity of the measurement (%),span deviation,mass concentration of particles derived from Lorenz-Mie calculation of OPC scattering (μg/m³),mass concentration of particles derived from Lorenz-Mie calculation of OPC scattering (μg/m³),mass concentration of particles derived from Lorenz-Mie calculation of OPC scattering (μg/m³)
DateTimeUTC,F1_M11,P_M11,Q1_M11,Q2_M11,T1_M11,T2_M11,T3_M11,T4_M11,T5_M11,U1_M11,ZSPAN_M11,X2_M11,X0_M11,X1_M11
2024-02-19 09:00:00,SystemResetWarning,0824.1,5.00,000.00,018.3,017.7,000.0,026.8,020.0,13.2,0000.0,0000.34,0001.30,0000.23
2024-02-19 09:01:00,SystemResetWarning,0824.1,5.02,000.00,018.4,017.8,000.0,026.8,020.0,13.1,0000.0,0000.35,0001.32,0000.23
2024-02-19 09:02:00,SystemResetWarning,0824.2,5.00,000.00,018.4,017.8,000.0,026.8,020.0,13.1,0000.0,0000.37,0001.39,0000.23
2024-02-19 09:03:00,SystemResetWarning,0824.2,4.99,000.00,018.4,017.8,000.0,026.8,020.0,13.1,0000.0,0000.36,0001.38,0000.23
2024-02-19 09:04:00,SystemResetWarning,0824.2,5.00,000.00,018.4,017.8,000.0,026.7,020.0,13.0,0000.0,0000.35,0001.37,0000.23
2024-02-19 09:05:00,SystemResetWarning,0824.1,5.01,000.00,018.4,017.8,000.0,026.7,020.0,12.9,0000.0,0000.34,0001.16,0000.23
2024-02-19 09:06:00,SystemResetWarning,0824.1,5.01,000.00,018.4,017.8,000.0,026.7,020.0,13.0,0000.0,0000.33,0000.58,0000.23
2024-02-19 09:07:00,SystemResetWarning,0824.2,5.00,000.00,018.4,017.8,000.0,026.7,020.1,12.9,0000.0,0000.32,0000.54,0000.23
2024-02-19 09:08:00,SystemResetWarning,0824.2,5.00,000.00,018.4,017.8,000.0,026.7,020.1,12.8,0000.0,0000.32,0000.56,0000.22
2024-02-19 09:09:00,SystemResetWarning,0824.0,5.00,000.00,018.4,017.8,000.0,026.7,020.0,12.8,0000.0,0000.33,0000.56,0000.23
2024-02-19 09:10:00,SystemResetWarning,0824.0,4.99,000.00,018.4,017.9,000.0,026.7,020.0,12.9,0000.0,0000.33,0000.56,0000.24
2024-02-19 09:11:00,SystemResetWarning,0824.2,4.99,000.00,018.3,017.8,000.0,026.7,020.0,13.0,0000.0,0000.35,0000.61,0000.24
2024-02-19 09:12:00,SystemResetWarning,0824.2,5.00,000.00,018.4,017.8,000.0,026.7,020.0,13.0,0000.0,0000.35,0000.62,0000.23
2024-02-19 09:13:00,SystemResetWarning,0824.1,5.01,000.00,018.3,017.8,000.0,026.7,020.0,13.0,0000.0,0000.36,0000.60,0000.24
2024-02-19 09:14:00,SystemResetWarning,0824.1,5.01,000.00,018.3,017.8,000.0,026.7,020.0,13.1,0000.0,0000.34,0000.58,0000.24
2024-02-19 09:15:00,SystemResetWarning,0824.0,4.99,000.00,018.3,017.8,000.0,026.7,020.0,13.2,0000.0,0000.35,0000.80,0000.24
2024-02-19 09:16:00,SystemResetWarning,0824.0,4.98,000.00,018.3,017.8,000.0,026.7,020.0,13.2,0000.0,0000.37,0000.85,0000.25
2024-02-19 09:17:00,SystemResetWarning,0824.0,5.00,000.00,018.3,017.8,000.0,026.7,020.0,13.1,0000.0,0000.39,0000.88,0000.26
2024-02-19 09:18:00,SystemResetWarning,0824.0,5.00,000.00,018.3,017.8,000.0,026.7,020.0,13.1,0000.0,0000.38,0000.86,0000.26
2024-02-19 09:19:00,SystemResetWarning,0824.1,5.01,000.00,018.3,017.8,000.0,026.7,020.0,13.0,0000.0,0000.36,0000.81,0000.26
2024-02-19 09:20:00,SystemResetWarning,0824.2,5.01,000.00,018.3,017.8,000.0,026.7,020.0,12.9,0000.0,0000.36,0000.80,0000.25
2024-02-19 09:21:00,SystemResetWarning,0824.1,5.00,000.00,018.3,017.8,000.0,026.7,020.0,13.0,0000.0,0000.36,0000.79,0000.25
2024-02-19 09:22:00,SystemResetWarning,0824.1,5.00,000.00,018.3,017.8,000.0,026.7,020.0,12.9,0000.0,0000.35,0000.74,0000.25
2024-02-19 09:23:00,SystemResetWarning,0824.2,5.00,000.00,018.3,017.8,000.0,026.8,020.0,13.0,0000.0,0000.33,0000.70,0000.25
2024-02-19 09:24:00,SystemResetWarning,0824.2,5.00,000.00,018.3,017.8,000.0,026.8,020.1,12.9,0000.0,0000.31,0000.66,0000.25
2024-02-19 09:25:00,SystemResetWarning,0824.2,4.99,000.00,018.3,017.8,000.0,026.8,020.1,12.8,0000.0,0000.31,0000.65,0000.25
2024-02-19 09:26:00,SystemResetWarning,0824.1,5.00,000.00,018.4,017.9,000.0,026.8,020.1,12.8,0000.0,0000.32,0000.49,0000.24
2024-02-19 09:27:00,SystemResetWarning,0824.2,5.00,000.00,018.4,017.9,000.0,026.8,020.1,12.7,0000.0,0000.30,0000.45,0000.24
2024-02-19 09:28:00,SystemResetWarning,0824.2,5.00,000.00,018.4,017.9,000.0,026.8,020.1,12.8,0000.0,0000.30,0000.47,0000.23
2024-02-19 09:29:00,SystemResetWarning,0824.1,5.00,000.00,018.4,017.9,000.0,026.7,020.1,13.0,0000.0,0000.30,0000.49,0000.23
2024-02-19 09:30:00,SystemResetWarning,0824.1,5.01,000.00,018.4,017.9,000.0,026.8,020.1,13.1,0000.0,0000.33,0000.54,0000.24
2024-02-19 09:31:00,SystemResetWarning,0824.2,5.00,000.00,018.4,017.9,000.0,026.8,020.1,13.2,0000.0,0000.33,0000.56,0000.25
2024-02-19 09:32:00,SystemResetWarning,0824.1,5.00,000.00,018.4,017.9,000.0,026.8,020.1,13.4,0000.0,0000.33,0000.56,0000.25
2024-02-19 09:33:00,SystemResetWarning,0824.2,5.00,000.00,018.4,017.9,000.0,026.8,020.1,13.4,0000.0,0000.32,0000.56,0000.24
2024-02-19 09:34:00,SystemResetWarning,0824.3,5.00,000.00,018.4,017.9,000.0,026.8,020.1,13.5,0000.0,0000.32,0000.56,0000.24
2024-02-19 09:35:00,SystemResetWarning,0824.3,4.99,000.00,018.4,017.9,000.0,026.8,020.1,13.4,0000.0,0000.32,0000.56,0000.24
2024-02-19 09:36:00,SystemResetWarning,0824.2,4.99,000.00,018.4,017.9,000.0,026.8,020.1,13.1,0000.0,0000.31,0000.53,0000.23
2024-02-19 09:37:00,SystemResetWarning,0824.2,5.01,000.00,018.4,017.9,000.0,026.8,020.1,13.1,0000.0,0000.30,0000.50,0000.24
2024-02-19 09:38:00,SystemResetWarning,0824.2,5.00,000.00,018.4,017.9,000.0,026.8,020.1,13.1,0000.0,0000.30,0000.50,0000.23
2024-02-19 09:39:00,SystemResetWarning,0824.3,5.01,000.00,018.4,017.9,000.0,026.8,020.1,13.4,0000.0,0000.29,0000.47,0000.23
2024-02-19 09:40:00,SystemResetWarning,0824.3,5.01,000.00,018.4,017.9,000.0,026.8,020.1,13.2,0000.0,0000.28,0001.65,0000.22
2024-02-19 09:41:00,SystemResetWarning,0824.2,5.00,000.00,018.4,017.9,000.0,026.7,020.0,13.1,0000.0,0000.27,0001.72,0000.22
2024-02-19 09:42:00,SystemResetWarning,0824.2,5.00,000.00,018.4,017.9,000.0,026.7,020.0,13.4,0000.0,0000.26,0001.75,0000.22
2024-02-19 09:43:00,SystemResetWarning,0824.2,5.00,000.00,018.4,017.8,000.0,026.7,020.0,13.4,0000.0,0000.26,0001.93,0000.22
2024-02-19 09:44:00,SystemResetWarning,0824.0,5.01,000.00,018.4,017.8,000.0,026.7,020.0,13.5,0000.0,0000.25,0001.90,0000.21
2024-02-19 09:45:00,SystemResetWarning,0823.9,5.00,000.00,018.4,017.8,000.0,026.7,020.0,13.1,0000.0,0000.26,0001.92,0000.22
2024-02-19 09:46:00,SystemResetWarning,0824.0,5.00,000.00,018.3,017.8,000.0,026.7,020.0,12.9,0000.0,0000.28,0001.94,0000.22
2024-02-19 09:47:00,SystemResetWarning,0824.0,5.00,000.00,018.3,017.8,000.0,026.7,020.0,13.0,0000.0,0000.31,0002.00,0000.23
2024-02-19 09:48:00,SystemResetWarning,0823.9,5.00,000.00,018.3,017.8,000.0,026.8,020.0,13.2,0000.0,0000.30,0001.98,0000.23
2024-02-19 09:49:00,SystemResetWarning,0824.0,5.00,000.00,018.4,017.8,000.0,026.7,020.0,13.3,0000.0,0000.30,0001.97,0000.23
2024-02-19 09:50:00,SystemResetWarning,0824.0,5.00,000.00,018.3,017.8,000.0,026.7,020.0,12.8,0000.0,0000.30,0002.03,0000.23
2024-02-19 09:51:00,SystemResetWarning,0823.9,4.99,000.00,018.3,017.8,000.0,026.8,020.0,12.7,0000.0,0000.32,0001.38,0000.23
2024-02-19 09:52:00,SystemResetWarning,0823.9,4.99,000.00,018.3,017.8,000.0,026.7,020.0,12.6,0000.0,0000.32,0000.82,0000.23
2024-02-19 09:53:00,SystemResetWarning,0824.0,5.01,000.00,018.3,017.8,000.0,026.7,020.0,13.1,0000.0,0000.31,0000.80,0000.23
2024-02-19 09:54:00,SystemResetWarning,0824.0,5.01,000.00,018.3,017.8,000.0,026.7,020.0,13.3,0000.0,0000.31,0000.58,0000.22
2024-02-19 09:55:00,SystemResetWarning,0824.0,4.99,000.00,018.3,017.8,000.0,026.7,020.0,13.4,0000.0,0000.32,0000.66,0000.23
2024-02-19 09:56:00,SystemResetWarning,0824.0,4.99,000.00,018.3,017.8,000.0,026.7,020.0,13.4,0000.0,0000.32,0000.68,0000.22
2024-02-19 09:57:00,SystemResetWarning,0823.9,5.01,000.00,018.3,017.8,000.0,026.8,020.0,13.1,0000.0,0000.32,0000.70,0000.23
2024-02-19 09:58:00,SystemResetWarning,0823.9,5.01,000.00,018.4,017.8,000.0,026.8,020.0,12.9,0000.0,0000.30,0000.67,0000.22
2024-02-19 09:59:00,SystemResetWarning,0823.9,5.00,000.00,018.4,017.9,000.0,026.8,020.0,12.9,0000.0,0000.30,0000.69,0000.21
